Time,TemperatureF,DewpointF,PressureIn,WindDirection,WindDirectionDegrees,WindSpeedMPH,WindSpeedGustMPH,Humidity,HourlyPrecipIn,Conditions,Clouds,dailyrainin,SoftwareType,DateUTC
2013-11-16 00:08:00,61.8,40.0,29.64,SSE,160,7.0,-999.0,45,-99.99,,,0.00,weatherlink.com 1.10,2013-11-16 07:08:00,
2013-11-16 00:23:00,61.2,41.0,29.65,SSE,165,6.0,-999.0,47,-99.99,,,0.00,weatherlink.com 1.10,2013-11-16 07:23:00,
2013-11-16 00:38:00,60.5,40.0,29.65,SSE,168,0.0,-999.0,48,-99.99,,,0.00,weatherlink.com 1.10,2013-11-16 07:38:00,
2013-11-16 00:53:00,60.2,41.0,29.65,SSE,166,5.0,-999.0,49,-99.99,,,0.00,weatherlink.com 1.10,2013-11-16 07:53:00,
2013-11-16 01:08:00,60.0,41.0,29.65,SSE,161,1.0,-999.0,49,-99.99,,,0.00,weatherlink.com 1.10,2013-11-16 08:08:00,
2013-11-16 01:23:00,59.8,41.0,29.65,SSE,150,1.0,-999.0,50,-99.99,,,0.00,weatherlink.com 1.10,2013-11-16 08:23:00,
2013-11-16 01:38:00,59.5,41.0,29.65,SSE,150,5.0,-999.0,50,-99.99,,,0.00,weatherlink.com 1.10,2013-11-16 08:38:00,
2013-11-16 01:53:00,59.4,41.0,29.65,SSE,153,6.0,-999.0,51,-99.99,,,0.00,weatherlink.com 1.10,2013-11-16 08:53:00,
2013-11-16 02:09:00,59.1,41.0,29.66,SSE,157,0.0,-999.0,51,-99.99,,,0.00,weatherlink.com 1.10,2013-11-16 09:09:00,
2013-11-16 02:24:00,58.5,41.0,29.66,SSE,157,5.0,-999.0,52,-99.99,,,0.00,weatherlink.com 1.10,2013-11-16 09:24:00,
2013-11-16 02:39:00,58.4,41.0,29.67,SSE,164,0.0,-999.0,52,-99.99,,,0.00,weatherlink.com 1.10,2013-11-16 09:39:00,
2013-11-16 02:54:00,57.9,41.0,29.67,SSE,165,4.0,-999.0,53,-99.99,,,0.00,weatherlink.com 1.10,2013-11-16 09:54:00,
2013-11-16 03:09:00,58.0,41.0,29.68,SSE,166,4.0,-999.0,53,-99.99,,,0.00,weatherlink.com 1.10,2013-11-16 10:09:00,
2013-11-16 03:24:00,57.7,40.0,29.68,South,171,7.0,-999.0,53,-99.99,,,0.00,weatherlink.com 1.10,2013-11-16 10:24:00,
2013-11-16 03:39:00,57.8,41.0,29.68,South,171,0.0,-999.0,53,-99.99,,,0.00,weatherlink.com 1.10,2013-11-16 10:39:00,
2013-11-16 03:54:00,57.5,40.0,29.68,South,170,4.0,-999.0,53,-99.99,,,0.00,weatherlink.com 1.10,2013-11-16 10:54:00,
2013-11-16 04:09:00,57.5,40.0,29.69,South,170,0.0,-999.0,53,-99.99,,,0.00,weatherlink.com 1.10,2013-11-16 11:09:00,
2013-11-16 04:24:00,57.3,41.0,29.69,South,170,8.0,-999.0,54,-99.99,,,0.00,weatherlink.com 1.10,2013-11-16 11:24:00,
2013-11-16 04:39:00,57.3,41.0,29.70,South,170,5.0,-999.0,54,-99.99,,,0.00,weatherlink.com 1.10,2013-11-16 11:39:00,
2013-11-16 04:54:00,56.7,40.0,29.70,South,170,0.0,-999.0,54,-99.99,,,0.00,weatherlink.com 1.10,2013-11-16 11:54:00,
2013-11-16 05:09:00,55.6,40.0,29.70,SSE,159,5.0,-999.0,56,-99.99,,,0.00,weatherlink.com 1.10,2013-11-16 12:09:00,
2013-11-16 05:24:00,55.6,40.0,29.70,SSE,159,8.0,-999.0,56,-99.99,,,0.00,weatherlink.com 1.10,2013-11-16 12:24:00,
2013-11-16 05:39:00,55.2,40.0,29.70,South,169,4.0,-999.0,57,-99.99,,,0.00,weatherlink.com 1.10,2013-11-16 12:39:00,
2013-11-16 05:54:00,54.9,40.0,29.71,South,169,7.0,-999.0,58,-99.99,,,0.00,weatherlink.com 1.10,2013-11-16 12:54:00,
2013-11-16 06:09:00,54.5,40.0,29.71,South,169,4.0,-999.0,58,-99.99,,,0.00,weatherlink.com 1.10,2013-11-16 13:09:00,
2013-11-16 06:39:00,54.4,40.0,29.71,South,169,6.0,-999.0,59,-99.99,,,0.00,weatherlink.com 1.10,2013-11-16 13:39:00,
2013-11-16 06:54:00,54.3,40.0,29.71,SSE,167,5.0,-999.0,59,-99.99,,,0.00,weatherlink.com 1.10,2013-11-16 13:54:00,
2013-11-16 07:10:00,54.1,40.0,29.72,South,183,4.0,-999.0,60,-99.99,,,0.00,weatherlink.com 1.10,2013-11-16 14:10:00,
2013-11-16 07:25:00,54.3,40.0,29.73,South,172,2.0,-999.0,59,-99.99,,,0.00,weatherlink.com 1.10,2013-11-16 14:25:00,
2013-11-16 07:40:00,54.4,40.0,29.74,South,171,6.0,-999.0,59,-99.99,,,0.00,weatherlink.com 1.10,2013-11-16 14:40:00,
2013-11-16 07:55:00,55.5,41.0,29.74,South,171,7.0,-999.0,58,-99.99,,,0.00,weatherlink.com 1.10,2013-11-16 14:55:00,
2013-11-16 08:09:00,56.5,41.0,29.76,South,171,5.0,-999.0,56,-99.99,,,0.00,weatherlink.com 1.10,2013-11-16 15:09:00,
2013-11-16 08:24:00,57.6,41.0,29.77,South,173,5.0,-999.0,55,-99.99,,,0.00,weatherlink.com 1.10,2013-11-16 15:24:00,
2013-11-16 08:39:00,59.1,42.0,29.77,South,177,8.0,-999.0,53,-99.99,,,0.00,weatherlink.com 1.10,2013-11-16 15:39:00,
2013-11-16 08:54:00,60.6,42.0,29.78,SSE,167,9.0,-999.0,51,-99.99,,,0.00,weatherlink.com 1.10,2013-11-16 15:54:00,
2013-11-16 09:09:00,61.4,42.0,29.78,South,169,8.0,-999.0,50,-99.99,,,0.00,weatherlink.com 1.10,2013-11-16 16:09:00,
2013-11-16 09:24:00,62.3,43.0,29.79,SSE,156,9.0,-999.0,49,-99.99,,,0.00,weatherlink.com 1.10,2013-11-16 16:24:00,
2013-11-16 09:39:00,63.3,43.0,29.79,SSE,162,5.0,-999.0,48,-99.99,,,0.00,weatherlink.com 1.10,2013-11-16 16:39:00,
2013-11-16 09:54:00,64.2,43.0,29.79,South,169,9.0,-999.0,47,-99.99,,,0.00,weatherlink.com 1.10,2013-11-16 16:54:00,
2013-11-16 10:09:00,64.8,43.0,29.80,South,173,7.0,-999.0,46,-99.99,,,0.00,weatherlink.com 1.10,2013-11-16 17:09:00,
2013-11-16 10:25:00,65.8,43.0,29.80,SSE,163,8.0,-999.0,44,-99.99,,,0.00,weatherlink.com 1.10,2013-11-16 17:25:00,
2013-11-16 10:40:00,66.3,43.0,29.80,SSE,161,6.0,-999.0,43,-99.99,,,0.00,weatherlink.com 1.10,2013-11-16 17:40:00,
2013-11-16 10:55:00,67.2,43.0,29.80,SSW,196,7.0,-999.0,42,-99.99,,,0.00,weatherlink.com 1.10,2013-11-16 17:55:00,
2013-11-16 11:10:00,67.8,43.0,29.81,SSW,198,3.0,-999.0,41,-99.99,,,0.00,weatherlink.com 1.10,2013-11-16 18:10:00,
2013-11-16 11:25:00,68.9,43.0,29.81,SSW,199,3.0,-999.0,39,-99.99,,,0.00,weatherlink.com 1.10,2013-11-16 18:25:00,
2013-11-16 11:40:00,68.7,43.0,29.80,South,186,4.0,-999.0,39,-99.99,,,0.00,weatherlink.com 1.10,2013-11-16 18:40:00,
2013-11-16 11:55:00,69.5,43.0,29.81,SSE,160,6.0,-999.0,39,-99.99,,,0.00,weatherlink.com 1.10,2013-11-16 18:55:00,
2013-11-16 12:10:00,69.7,43.0,29.80,SSW,198,3.0,-999.0,38,-99.99,,,0.00,weatherlink.com 1.10,2013-11-16 19:10:00,
2013-11-16 12:25:00,70.1,43.0,29.79,South,175,5.0,-999.0,38,-99.99,,,0.00,weatherlink.com 1.10,2013-11-16 19:25:00,
2013-11-16 12:40:00,70.4,41.0,29.79,SSW,199,5.0,-999.0,35,-99.99,,,0.00,weatherlink.com 1.10,2013-11-16 19:40:00,
2013-11-16 12:55:00,70.6,42.0,29.78,SW,215,3.0,-999.0,35,-99.99,,,0.00,weatherlink.com 1.10,2013-11-16 19:55:00,
2013-11-16 13:10:00,71.1,40.0,29.77,SW,220,5.0,-999.0,33,-99.99,,,0.00,weatherlink.com 1.10,2013-11-16 20:10:00,
2013-11-16 13:25:00,71.3,41.0,29.76,South,186,5.0,-999.0,33,-99.99,,,0.00,weatherlink.com 1.10,2013-11-16 20:25:00,
2013-11-16 13:40:00,71.5,39.0,29.75,SSE,165,5.0,-999.0,31,-99.99,,,0.00,weatherlink.com 1.10,2013-11-16 20:40:00,
2013-11-16 13:55:00,71.3,39.0,29.75,South,176,6.0,-999.0,31,-99.99,,,0.00,weatherlink.com 1.10,2013-11-16 20:55:00,
2013-11-16 14:10:00,71.3,39.0,29.75,SSW,209,6.0,-999.0,31,-99.99,,,0.00,weatherlink.com 1.10,2013-11-16 21:10:00,
2013-11-16 14:25:00,71.8,39.0,29.74,South,186,12.0,-999.0,30,-99.99,,,0.00,weatherlink.com 1.10,2013-11-16 21:25:00,
2013-11-16 14:40:00,71.5,38.0,29.74,South,186,2.0,-999.0,30,-99.99,,,0.00,weatherlink.com 1.10,2013-11-16 21:40:00,
2013-11-16 14:55:00,71.4,38.0,29.74,SSW,200,7.0,-999.0,30,-99.99,,,0.00,weatherlink.com 1.10,2013-11-16 21:55:00,
2013-11-16 15:10:00,71.3,38.0,29.74,South,185,9.0,-999.0,30,-99.99,,,0.00,weatherlink.com 1.10,2013-11-16 22:10:00,
2013-11-16 15:25:00,71.0,38.0,29.74,SSW,192,3.0,-999.0,30,-99.99,,,0.00,weatherlink.com 1.10,2013-11-16 22:25:00,
2013-11-16 15:40:00,70.8,39.0,29.73,SSW,202,2.0,-999.0,31,-99.99,,,0.00,weatherlink.com 1.10,2013-11-16 22:40:00,
2013-11-16 15:55:00,70.8,39.0,29.74,SSW,192,1.0,-999.0,31,-99.99,,,0.00,weatherlink.com 1.10,2013-11-16 22:55:00,
2013-11-16 16:10:00,70.3,38.0,29.73,South,184,12.0,-999.0,31,-99.99,,,0.00,weatherlink.com 1.10,2013-11-16 23:10:00,
2013-11-16 16:25:00,70.0,38.0,29.74,SSW,193,8.0,-999.0,31,-99.99,,,0.00,weatherlink.com 1.10,2013-11-16 23:25:00,
2013-11-16 16:40:00,69.8,38.0,29.75,South,184,6.0,-999.0,31,-99.99,,,0.00,weatherlink.com 1.10,2013-11-16 23:40:00,
2013-11-16 16:55:00,69.5,37.0,29.76,SSW,198,4.0,-999.0,31,-99.99,,,0.00,weatherlink.com 1.10,2013-11-16 23:55:00,
2013-11-16 17:10:00,69.0,37.0,29.76,SSW,195,1.0,-999.0,31,-99.99,,,0.00,weatherlink.com 1.10,2013-11-17 00:10:00,
2013-11-16 17:25:00,68.5,37.0,29.76,SSW,192,3.0,-999.0,32,-99.99,,,0.00,weatherlink.com 1.10,2013-11-17 00:25:00,
2013-11-16 17:40:00,67.9,38.0,29.76,South,184,6.0,-999.0,33,-99.99,,,0.00,weatherlink.com 1.10,2013-11-17 00:40:00,
2013-11-16 17:55:00,67.2,38.0,29.77,SSW,211,0.0,-999.0,34,-99.99,,,0.00,weatherlink.com 1.10,2013-11-17 00:55:00,
2013-11-16 18:10:00,66.1,38.0,29.78,SSW,211,0.0,-999.0,35,-99.99,,,0.00,weatherlink.com 1.10,2013-11-17 01:10:00,
2013-11-16 18:25:00,65.7,37.0,29.78,SSW,211,0.0,-999.0,35,-99.99,,,0.00,weatherlink.com 1.10,2013-11-17 01:25:00,
2013-11-16 18:40:00,65.0,37.0,29.78,SSW,211,0.0,-999.0,36,-99.99,,,0.00,weatherlink.com 1.10,2013-11-17 01:40:00,
2013-11-16 18:55:00,63.9,36.0,29.79,SSW,211,0.0,-999.0,36,-99.99,,,0.00,weatherlink.com 1.10,2013-11-17 01:55:00,
2013-11-16 19:10:00,63.2,36.0,29.79,SSW,211,0.0,-999.0,37,-99.99,,,0.00,weatherlink.com 1.10,2013-11-17 02:10:00,
2013-11-16 19:25:00,62.8,37.0,29.79,SSW,211,1.0,-999.0,38,-99.99,,,0.00,weatherlink.com 1.10,2013-11-17 02:25:00,
2013-11-16 19:40:00,62.2,36.0,29.80,SSW,211,0.0,-999.0,38,-99.99,,,0.00,weatherlink.com 1.10,2013-11-17 02:40:00,
2013-11-16 19:55:00,61.3,37.0,29.80,SSW,211,0.0,-999.0,40,-99.99,,,0.00,weatherlink.com 1.10,2013-11-17 02:55:00,
2013-11-16 20:10:00,60.1,36.0,29.81,SSW,211,0.0,-999.0,41,-99.99,,,0.00,weatherlink.com 1.10,2013-11-17 03:10:00,
2013-11-16 20:25:00,60.5,36.0,29.81,SSW,211,0.0,-999.0,41,-99.99,,,0.00,weatherlink.com 1.10,2013-11-17 03:25:00,
2013-11-16 20:40:00,60.8,37.0,29.82,SSW,211,0.0,-999.0,41,-99.99,,,0.00,weatherlink.com 1.10,2013-11-17 03:40:00,
2013-11-16 20:55:00,59.9,37.0,29.82,SSW,211,0.0,-999.0,42,-99.99,,,0.00,weatherlink.com 1.10,2013-11-17 03:55:00,
2013-11-16 21:10:00,59.6,37.0,29.83,SSW,211,0.0,-999.0,43,-99.99,,,0.00,weatherlink.com 1.10,2013-11-17 04:10:00,
2013-11-16 21:25:00,58.9,37.0,29.84,SSW,211,0.0,-999.0,44,-99.99,,,0.00,weatherlink.com 1.10,2013-11-17 04:25:00,
2013-11-16 21:40:00,57.7,37.0,29.84,SSW,211,0.0,-999.0,46,-99.99,,,0.00,weatherlink.com 1.10,2013-11-17 04:40:00,
2013-11-16 21:55:00,56.6,36.0,29.85,SSW,211,0.0,-999.0,47,-99.99,,,0.00,weatherlink.com 1.10,2013-11-17 04:55:00,
2013-11-16 22:10:00,55.9,36.0,29.86,SSW,211,0.0,-999.0,48,-99.99,,,0.00,weatherlink.com 1.10,2013-11-17 05:10:00,
2013-11-16 22:25:00,55.4,36.0,29.86,SSW,211,0.0,-999.0,49,-99.99,,,0.00,weatherlink.com 1.10,2013-11-17 05:25:00,
2013-11-16 22:40:00,55.4,36.0,29.87,SSW,211,0.0,-999.0,48,-99.99,,,0.00,weatherlink.com 1.10,2013-11-17 05:40:00,
2013-11-16 22:55:00,55.1,36.0,29.87,SSW,211,0.0,-999.0,49,-99.99,,,0.00,weatherlink.com 1.10,2013-11-17 05:55:00,
2013-11-16 23:10:00,55.0,36.0,29.88,SSW,211,0.0,-999.0,50,-99.99,,,0.00,weatherlink.com 1.10,2013-11-17 06:10:00,
2013-11-16 23:25:00,54.8,36.0,29.88,SSW,211,0.0,-999.0,50,-99.99,,,0.00,weatherlink.com 1.10,2013-11-17 06:25:00,
2013-11-16 23:40:00,55.2,37.0,29.88,SSW,211,0.0,-999.0,50,-99.99,,,0.00,weatherlink.com 1.10,2013-11-17 06:40:00,
2013-11-16 23:56:00,54.7,36.0,29.88,SSW,211,0.0,-999.0,50,-99.99,,,0.00,weatherlink.com 1.10,2013-11-17 06:56:00,